Location: Unspecified
(17.6330°N, 0.0000°E)
Time: 16:03:02
(UTC+00:00)

Tiros 1 despin weight - Pass Details

Date: 11 August 2020
Orbit: 593 x 642 km, 48.2° (Epoch: 23 September)

Event Time Altitude Azimuth Distance (km) Brightness Sun altitude
Exits shadow 03:32:47 22° 124° (SE) 1,348 ? -29.2°
Drops below altitude 10° 03:36:10 10° 77° (ENE) 1,980 ? -28.5°
Sets 03:38:51 0° 62° (ENE) 2,877 ? -28.0°
